Tracking 17925 objects as of 22-January-2017
HD Live streaming from Space Station
objects crossing your sky now

COSMOS 2378

Track COSMOS 2378 now!
10-day predictions
COSMOS 2378 is classified as:


NORAD ID: 26818
Int'l Code: 2001-023A
Perigee: 992.7 km
Apogee: 992.7 km
Inclination: 82.9 °
Period: 104.8 minutes
Semi major axis: 7363 km
RCS: 1.9621 m2 (large)
Launch date: June 8, 2001
Source: Commonwealth of Independent States (former USSR) (CIS)
Launch site: PLESETSK MISSILE AND SPACE COMPLEX (PKMTR)

Normally part of a six-satellite constellation.
Your satellite tracking list
Your tracking list is empty





NASA's NSSDC Master Catalog

Two Line Element Set (TLE):
1 26818U 01023A   17022.38572158  .00000039  00000-0  25889-4 0  9990
2 26818  82.9274 245.3912 0031693 244.1249 115.6639 13.73911813783515
Source of the keplerian elements: AFSPC